Tracking 19176 objects as of 25-May-2018
HD Live streaming from Space Station
objects crossing your sky now

NOAA 16 DEB

Track NOAA 16 DEB now!
10-day predictions


NORAD ID: 41364
Int'l Code: 2000-055JH
Perigee: 848.6 km
Apogee: 869.0 km
Inclination: 98.8 °
Period: 102.0 minutes
Semi major axis: 7229 km
RCS: Unknown
Launch date: September 21, 2000
Source: United States (US)
Launch site: AIR FORCE WESTERN TEST RANGE (AFWTR)

Note: This is SATELLITE DEBRIS
aabbcc
Your satellite tracking list
Your tracking list is empty




NASA's NSSDC Master Catalog

Two Line Element Set (TLE):
1 41364U 00055JH  18144.43151170 +.00000674 +00000-0 +39013-3 0  9994
2 41364 098.8049 211.7488 0014131 313.7014 046.2986 14.12259426118425
Source of the keplerian elements: AFSPC